Weather History for Fort Campbell, KY

Change the Weather History Date:

Monday, March 4, 2013

  Actual Average Record
Temperature  
Mean Temperature 46 °F -  
Max Temperature 57 °F 51 °F 75 °F (2004)
Min Temperature 35 °F 32 °F 10 °F (2002)
Degree Days  
Heating Degree Days 19    
Moisture  
Dew Point 25 °F    
Average Humidity 43    
Maximum Humidity 60    
Minimum Humidity 30    
Precipitation  
Precipitation 0.00 in - - ()
Sea Level Pressure  
Sea Level Pressure 29.97 in    
Wind  
Wind Speed 8 mph (SE)    
Max Wind Speed 18 mph    
Max Gust Speed 24 mph    
Visibility 10 miles    
Events      
Averages and records for this station are not official NWS values.
T = Trace of Precipitation, MM = Missing Value Source: NWS Daily Summary

Daily Weather History Graph

Daily Weather History Graph

Search for Another Location

Airport:

Trip Planner

Search our weather history database for the weather conditions in past years. The results will help you decide how hot, cold, wet, or windy it might be!

Date:

Astronomy

Mar. 04, 2013 Rise Set
Actual Time 6:16 AM CST 5:47 PM CST
Civil Twilight 5:50 AM CST 6:13 PM CST
Nautical Twilight 5:20 AM CST 6:43 PM CST
Astronomical Twilight 4:50 AM CST 7:13 PM CST
Moon 12:18 AM CST (3/4) 10:35 AM CST (3/4)
Length of Visible Light 12h 23m
Length of Day
11h 31m
Waning Gibbous, 52% of the Moon is Illuminated
Mar 4
Waning Gibbous
Mar 4
Last Quarter
Mar 11
New
Mar 19
First Quarter
Mar 27
Full

Hourly Weather History & Observations

Time (CST) Temp. Windchill Dew Point Humidity Pressure Visibility Wind Dir Wind Speed Gust Speed Precip Events Conditions
12:55 AM 36.1 °F 33.5 °F 20.7 °F 53% 30.13 in 10.0 mi SE 3.5 mph - N/A   Scattered Clouds
1:55 AM 35.4 °F 31.5 °F 22.6 °F 60% 30.13 in 10.0 mi East 4.6 mph - N/A   Overcast
2:55 AM 35.2 °F 30.3 °F 21.4 °F 57% 30.12 in 10.0 mi East 5.8 mph - N/A   Overcast
3:55 AM 35.1 °F 29.3 °F 22.5 °F 60% 30.12 in 10.0 mi East 6.9 mph - N/A   Mostly Cloudy
4:55 AM 35.1 °F 30.1 °F 22.1 °F 59% 30.12 in 10.0 mi ESE 5.8 mph - N/A   Mostly Cloudy
5:55 AM 35.6 °F 29.2 °F 21.2 °F 56% 30.12 in 10.0 mi ESE 8.1 mph - N/A   Partly Cloudy
6:55 AM 35.8 °F 30.9 °F 20.7 °F 54% 30.12 in 10.0 mi SE 5.8 mph - N/A   Partly Cloudy
7:55 AM 37.2 °F 30.0 °F 19.6 °F 49% 30.12 in 10.0 mi SE 10.4 mph - N/A   Clear
8:55 AM 39.4 °F 32.7 °F 17.8 °F 42% 30.10 in 10.0 mi SE 10.4 mph 16.1 mph N/A   Partly Cloudy
9:55 AM 43.0 °F 36.8 °F 18.7 °F 38% 30.08 in 10.0 mi SSE 11.5 mph - N/A   Mostly Cloudy
10:55 AM 46.6 °F - 19.8 °F 34% 30.04 in 10.0 mi SSE 13.8 mph 20.7 mph N/A   Clear
11:55 AM 49.8 °F - 20.8 °F 32% 30.00 in 10.0 mi SSE 12.7 mph - N/A   Scattered Clouds
12:55 PM 52.2 °F - 22.5 °F 31% 29.95 in 10.0 mi SSE 11.5 mph 18.4 mph N/A   Scattered Clouds
1:55 PM 54.9 °F - 23.7 °F 30% 29.89 in 10.0 mi SSE 18.4 mph 24.2 mph N/A   Partly Cloudy
2:55 PM 56.8 °F - 25.5 °F 30% 29.86 in 10.0 mi SE 15.0 mph - N/A   Mostly Cloudy
3:55 PM 57.0 °F - 26.2 °F 31% 29.86 in 10.0 mi SSE 11.5 mph - N/A   Partly Cloudy
4:55 PM 56.1 °F - 27.0 °F 33% 29.86 in 10.0 mi SE 11.5 mph 17.3 mph N/A   Mostly Cloudy
5:55 PM 54.3 °F - 27.3 °F 35% 29.86 in 10.0 mi ESE 11.5 mph - N/A   Partly Cloudy
6:55 PM 53.8 °F - 28.2 °F 37% 29.86 in 10.0 mi SE 9.2 mph - N/A   Overcast
7:55 PM 54.0 °F - 28.6 °F 38% 29.87 in 10.0 mi SE 8.1 mph - N/A   Overcast
8:55 PM 54.3 °F - 28.2 °F 37% 29.87 in 10.0 mi SSE 10.4 mph - N/A   Overcast
9:55 PM 53.8 °F - 28.4 °F 38% 29.86 in 10.0 mi SE 10.4 mph - N/A   Overcast
10:55 PM 53.8 °F - 29.3 °F 39% 29.84 in 10.0 mi ESE 10.4 mph - N/A   Overcast
11:19 PM 53.6 °F - 30.2 °F 41% 29.84 in 10.0 mi SE 5.8 mph - N/A   Light Drizzle
11:31 PM 51.8 °F - 33.8 °F 50% 29.83 in 10.0 mi ESE 10.4 mph - N/A   Overcast
11:38 PM 51.8 °F - 33.8 °F 50% 29.83 in 10.0 mi ESE 9.2 mph - N/A   Light Drizzle
11:55 PM 52.2 °F - 33.6 °F 49% 29.83 in 10.0 mi SE 8.1 mph - 0.00 in   Light Drizzle